This is the latest recevied weather packets stored in our database for station/object KI6SYE. If no packets are shown the sender has not sent any weather packets the latest 10 day(s).
| Time | Temp. | Humidity | Pressure | Rain* | Wind** | Luminosity | Snow |
|---|---|---|---|---|---|---|---|
| 1777914894 | 17.22° C | 75% | 1015.7 hPa | 0 mm | - | 305 W/m² | - |
| 1777914591 | 16.67° C | 76% | 1015.9 hPa | 0 mm | - | 627 W/m² | - |
| 1777914287 | 16.11° C | 77% | 1015.8 hPa | 0 mm | - | 611 W/m² | - |
| 1777913985 | 16.67° C | 76% | 1015.8 hPa | 0 mm | - | 481 W/m² | - |
| 1777913680 | 16.67° C | 77% | 1015.8 hPa | 0 mm | - | 640 W/m² | - |
| 1777913378 | 16.67° C | 77% | 1015.8 hPa | 0 mm | - | 566 W/m² | - |
| 1777913074 | 16.67° C | 77% | 1015.7 hPa | 0 mm | - | 578 W/m² | - |
| 1777912771 | 16.67° C | 77% | 1015.7 hPa | 0 mm | - | 561 W/m² | - |
| 1777912466 | 16.11° C | 77% | 1015.8 hPa | 0 mm | - | 549 W/m² | - |
| 1777912163 | 16.11° C | 77% | 1015.9 hPa | 0 mm | - | 536 W/m² | - |
| 1777911859 | 16.11° C | 77% | 1015.7 hPa | 0 mm | - | 531 W/m² | - |
| 1777911556 | 16.11° C | 78% | 1015.7 hPa | 0 mm | - | 520 W/m² | - |
| 1777911252 | 16.11° C | 78% | 1015.7 hPa | 0 mm | - | 408 W/m² | - |
| 1777910949 | 15.56° C | 78% | 1015.5 hPa | 0 mm | - | 430 W/m² | - |
| 1777910647 | 16.11° C | 77% | 1015.3 hPa | 0 mm | - | 306 W/m² | - |
| 1777910343 | 16.11° C | 77% | 1015.5 hPa | 0 mm | - | 334 W/m² | - |
| 1777910040 | 16.11° C | 77% | 1015.3 hPa | 0 mm | - | 214 W/m² | - |
| 1777909737 | 15.56° C | 77% | 1015.4 hPa | 0 mm | - | 455 W/m² | - |
| 1777909434 | 16.11° C | 76% | 1015.4 hPa | 0 mm | - | 434 W/m² | - |
| 1777909132 | 15.56° C | 76% | 1015.4 hPa | 0 mm | - | 309 W/m² | - |
| 1777908830 | 15.56° C | 78% | 1015.4 hPa | 0 mm | - | 291 W/m² | - |
| 1777908526 | 15.56° C | 78% | 1015.5 hPa | 0 mm | - | 312 W/m² | - |
| 1777908224 | 15.56° C | 78% | 1015.4 hPa | 0 mm | - | 372 W/m² | - |
| 1777907919 | 15.56° C | 78% | 1015.5 hPa | 0 mm | - | 348 W/m² | - |
| 1777907616 | 15.56° C | 78% | 1015.2 hPa | 0 mm | - | 319 W/m² | - |
* Rain latest hour (hover to see other rain measurements)
** Current wind speed in m/s (hover to see current wind gust speed)